EW8359 Weather Reports


Display with metric or nautical units.
time (UTC)temp
F
wind
direction
speed
MPH
gust
MPH
rain 1hr
in
rain 24hr
in
rain mn
in
humidity
%
barometer
mb
20260510004525 44 65 0.0 0.0 0.01 0.50 0.50 95 1011.7
20260510003034 44 67 0.0 0.0 0.01 0.49 0.49 95 1011.4
20260510001525 44 9 0.0 2.0 0.02 0.49 0.49 95 1011.2
20260510000026 44 53 0.0 0.0 0.02 0.49 0.49 94 1011.1
20260509234535 44 53 0.0 0.0 0.03 0.49 0.49 94 1011.2
20260509233034 44 36 0.0 0.0 0.05 0.48 0.48 94 1011.3
20260509231524 44 59 0.0 0.0 0.06 0.47 0.47 94 1011.4
20260509230025 44 25 0.0 0.0 0.08 0.47 0.47 94 1011.5
20260509224518 44 25 0.0 0.0 0.08 0.46 0.46 93 1011.5
20260509223018 44 37 0.0 0.0 0.06 0.43 0.43 93 1011.6
20260509221517 44 301 0.0 0.0 0.06 0.41 0.41 93 1011.6
20260509220020 44 144 0.0 1.0 0.07 0.39 0.39 93 1011.8
20260509214516 44 26 0.0 0.0 0.06 0.38 0.38 93 1011.9
20260509213016 45 20 0.0 3.0 0.06 0.37 0.37 93 1012.1
20260509211515 45 267 0.0 0.0 0.04 0.35 0.35 92 1012.0
20260509210014 45 57 0.0 0.0 0.02 0.32 0.32 93 1012.0
20260509204510 45 55 0.0 1.0 0.02 0.32 0.32 93 1011.9
20260509203008 46 59 0.0 1.0 0.03 0.31 0.31 93 1012.1
20260509201512 46 86 0.0 4.0 0.05 0.31 0.31 93 1012.0
20260509200007 46 84 0.0 3.0 0.07 0.30 0.30 93 1012.2
20260509194509 46 24 0.0 2.0 0.10 0.30 0.30 93 1012.4
20260509193006 45 104 0.0 0.0 0.11 0.28 0.28 92 1012.7
20260509191505 45 106 0.0 0.0 0.12 0.26 0.26 91 1012.9
20260509190011 45 106 0.0 0.0 0.11 0.23 0.23 91 1012.8
20260509184512 45 111 0.0 1.0 0.12 0.20 0.20 90 1012.9
20260509183003 45 144 0.0 0.0 0.12 0.17 0.17 90 1013.2
20260509181501 46 162 0.0 0.0 0.10 0.14 0.14 89 1013.1
20260509180104 47 161 0.0 2.0 0.10 0.12 0.12 89 1013.1
20260509174558 47 159 0.0 3.0 0.07 0.08 0.08 87 1013.2
20260509173101 48 153 0.0 0.0 0.04 0.05 0.05 84 1013.0
20260509171555 49 171 0.0 0.0 0.04 0.04 0.04 83 1013.0
20260509164554 50 190 0.0 0.0 0.01 0.01 0.01 77 1013.0
20260509163102 50 190 0.0 2.0 0.01 0.01 0.01 74 1013.1
20260509161556 51 201 0.0 4.0 0.00 0.00 0.00 70 1013.3
20260509160051 51 207 0.0 0.0 0.00 0.00 0.00 66 1013.2
20260509154602 51 232 0.0 3.0 0.00 0.00 0.00 61 1013.3
20260509153050 52 144 0.0 8.0 0.00 0.00 0.00 56 1013.4
20260509151552 54 187 0.0 7.0 0.00 0.00 0.00 49 1013.3
20260509150104 54 198 0.0 7.0 0.00 0.00 0.00 42 1013.0
20260509144647 55 130 0.0 4.0 0.00 0.00 0.00 43 1012.8
20260509143053 56 94 0.0 1.0 0.00 0.00 0.00 44 1012.6
20260509141547 55 200 0.0 4.0 0.00 0.00 0.00 44 1012.5
20260509140045 55 82 0.0 2.0 0.00 0.00 0.00 40 1012.5
20260509134546 56 156 0.0 3.0 0.00 0.00 0.00 43 1012.5
20260509133108 56 198 0.0 4.0 0.00 0.00 0.00 45 1012.5
20260509131541 56 84 0.0 5.0 0.00 0.00 0.00 46 1012.7
20260509130039 55 206 0.0 4.0 0.00 0.00 0.00 45 1012.9
20260509124546 54 136 0.0 9.0 0.00 0.00 0.00 47 1012.8
20260509123039 54 126 0.0 4.0 0.00 0.00 0.00 52 1012.9
20260509121546 53 58 0.0 0.0 0.00 0.00 0.00 59 1013.1
20260509120027 51 72 0.0 0.0 0.00 0.00 0.00 65 1013.0
20260509114545 47 187 0.0 0.0 0.00 0.00 0.00 72 1013.1
20260509113017 42 188 0.0 0.0 0.00 0.00 0.00 83 1013.1
20260509111516 39 188 0.0 0.0 0.00 0.00 0.00 86 1013.3
20260509110016 37 188 0.0 0.0 0.00 0.00 0.00 88 1013.3
20260509104520 36 188 0.0 0.0 0.00 0.00 0.00 88 1013.1
20260509103011 35 188 0.0 0.0 0.00 0.00 0.00 88 1012.8
20260509101512 35 188 0.0 0.0 0.00 0.00 0.00 88 1012.6
20260509100008 34 188 0.0 0.0 0.00 0.00 0.00 87 1012.4
20260509094507 34 188 0.0 0.0 0.00 0.00 0.00 86 1012.2
20260509093004 34 188 0.0 0.0 0.00 0.00 0.00 85 1012.2
20260509091503 35 188 0.0 0.0 0.00 0.00 0.00 83 1012.0
20260509090004 35 188 0.0 0.0 0.00 0.00 0.00 83 1011.8
20260509084605 35 188 0.0 0.0 0.00 0.00 0.00 82 1011.7
20260509083059 36 188 0.0 0.0 0.00 0.00 0.00 81 1011.8
20260509081555 36 188 0.0 0.0 0.00 0.00 0.00 79 1011.9
20260509080108 37 188 0.0 0.0 0.00 0.00 0.00 78 1012.0
20260509074553 37 188 0.0 0.0 0.00 0.00 0.00 79 1011.9
20260509073055 38 188 0.0 0.0 0.00 0.00 0.00 79 1011.9
20260509071546 39 188 0.0 0.0 0.00 0.00 0.00 79 1011.8
20260509070049 39 188 0.0 0.0 0.00 0.00 0.00 77 1011.8
20260509064541 39 188 0.0 0.0 0.00 0.00 0.00 77 1011.8
20260509063039 40 188 0.0 0.0 0.00 0.00 0.00 75 1011.6
20260509061535 40 188 0.0 0.0 0.00 0.00 0.00 76 1011.5
20260509060035 41 188 0.0 0.0 0.00 0.00 0.00 74 1011.4
20260509054530 41 188 0.0 0.0 0.00 0.00 0.00 72 1011.4
20260509053039 41 188 0.0 0.0 0.00 0.00 0.00 74 1011.3
20260509051529 42 188 0.0 0.0 0.00 0.00 0.00 74 1011.3
20260509050042 42 188 0.0 0.0 0.00 0.00 0.00 75 1011.2
20260509044521 42 188 0.0 0.0 0.00 0.00 0.00 76 1011.3
20260509043031 42 188 0.0 0.0 0.00 0.00 0.00 76 1011.4
20260509041514 42 188 0.0 0.0 0.00 0.00 0.00 74 1011.3
20260509040011 42 188 0.0 0.0 0.00 0.00 0.00 73 1011.1
20260509034510 43 188 0.0 0.0 0.00 0.00 0.00 72 1010.9
20260509033012 43 188 0.0 0.0 0.00 0.00 0.00 72 1010.8
20260509031508 43 188 0.0 0.0 0.00 0.00 0.00 72 1010.7
20260509030017 43 188 0.0 0.0 0.00 0.00 0.00 72 1010.5
20260509024504 43 188 0.0 0.0 0.00 0.00 0.00 70 1010.3
20260509023005 43 188 0.0 0.0 0.00 0.00 0.00 67 1010.3
20260509021502 42 188 0.0 0.0 0.00 0.00 0.00 65 1010.2
20260509020059 42 188 0.0 0.0 0.00 0.00 0.00 66 1009.9
20260509014558 41 188 0.0 0.0 0.00 0.00 0.00 67 1009.7
20260509013103 41 188 0.0 0.0 0.00 0.00 0.00 65 1009.5
20260509011602 42 188 0.0 0.0 0.00 0.00 0.00 63 1009.3
20260509010055 43 188 0.0 0.0 0.00 0.00 0.00 62 1008.9